| time (UTC) | temp F | wind direction | speed MPH | gust MPH | rain 1hr in | rain 24hr in | rain mn in | humidity % | barometer mb |
| 20260508103054 | 57 | 145 | 0.0 | 2.0 | 0.00 | 0.22 | 0.02 | 93 | 1013.8 |
| 20260508101550 | 56 | 145 | 0.0 | 2.0 | 0.00 | 0.22 | 0.02 | 92 | 1013.7 |
| 20260508100050 | 56 | 145 | 0.0 | 1.0 | 0.00 | 0.22 | 0.02 | 92 | 1013.8 |
| 20260508094603 | 56 | 146 | 0.0 | 4.0 | 0.00 | 0.22 | 0.02 | 92 | 1013.6 |
| 20260508093047 | 57 | 145 | 0.0 | 2.0 | 0.00 | 0.22 | 0.02 | 92 | 1013.7 |
| 20260508091545 | 57 | 145 | 0.0 | 2.0 | 0.00 | 0.22 | 0.02 | 92 | 1013.7 |
| 20260508090045 | 57 | 145 | 0.0 | 1.0 | 0.01 | 0.22 | 0.02 | 92 | 1013.6 |
| 20260508084542 | 57 | 146 | 0.0 | 2.0 | 0.02 | 0.22 | 0.02 | 92 | 1014.1 |
| 20260508083117 | 57 | 146 | 0.0 | 2.0 | 0.02 | 0.22 | 0.02 | 92 | 1014.1 |
| 20260508081544 | 57 | 145 | 0.0 | 3.0 | 0.02 | 0.22 | 0.02 | 92 | 1014.3 |
| 20260508080041 | 56 | 145 | 2.0 | 7.0 | 0.01 | 0.21 | 0.01 | 91 | 1014.4 |
| 20260508074537 | 56 | 141 | 2.0 | 4.0 | 0.00 | 0.20 | 0.00 | 91 | 1014.7 |
| 20260508073036 | 57 | 141 | 2.0 | 7.0 | 0.00 | 0.20 | 0.00 | 90 | 1014.5 |
| 20260508071535 | 57 | 138 | 2.0 | 8.0 | 0.00 | 0.20 | 0.00 | 90 | 1014.8 |
| 20260508070030 | 57 | 111 | 4.0 | 7.0 | 0.00 | 0.20 | 0.00 | 89 | 1015.1 |
| 20260508064544 | 57 | 98 | 2.0 | 6.0 | 0.00 | 0.20 | 0.00 | 89 | 1015.3 |
| 20260508063033 | 57 | 101 | 4.0 | 7.0 | 0.00 | 0.20 | 0.00 | 89 | 1015.5 |
| 20260508061531 | 57 | 115 | 3.0 | 6.0 | 0.00 | 0.20 | 0.00 | 89 | 1015.6 |
| 20260508060025 | 57 | 117 | 1.0 | 6.0 | 0.00 | 0.20 | 0.00 | 89 | 1015.5 |
| 20260508054526 | 57 | 127 | 0.0 | 2.0 | 0.00 | 0.20 | 0.00 | 89 | 1015.4 |
| 20260508053025 | 57 | 127 | 0.0 | 3.0 | 0.00 | 0.20 | 0.00 | 89 | 1015.2 |
| 20260508051524 | 57 | 127 | 0.0 | 2.0 | 0.00 | 0.20 | 0.00 | 89 | 1015.2 |
| 20260508050021 | 57 | 127 | 0.0 | 4.0 | 0.00 | 0.20 | 0.00 | 89 | 1015.3 |
| 20260508044520 | 57 | 127 | 1.0 | 3.0 | 0.00 | 0.20 | 0.20 | 89 | 1015.4 |
| 20260508043019 | 56 | 127 | 1.0 | 3.0 | 0.00 | 0.20 | 0.20 | 89 | 1016.0 |
| 20260508041519 | 56 | 127 | 1.0 | 3.0 | 0.00 | 0.20 | 0.20 | 89 | 1015.8 |
| 20260508040018 | 56 | 127 | 1.0 | 3.0 | 0.00 | 0.20 | 0.20 | 89 | 1016.0 |
| 20260508034518 | 56 | 127 | 1.0 | 2.0 | 0.00 | 0.20 | 0.20 | 89 | 1016.1 |
| 20260508033019 | 56 | 127 | 0.0 | 3.0 | 0.00 | 0.20 | 0.20 | 89 | 1016.0 |
| 20260508031518 | 56 | 127 | 1.0 | 4.0 | 0.00 | 0.20 | 0.20 | 89 | 1015.8 |
| 20260508030017 | 56 | 127 | 1.0 | 3.0 | 0.00 | 0.20 | 0.20 | 89 | 1016.0 |
| 20260508024524 | 56 | 127 | 2.0 | 4.0 | 0.00 | 0.20 | 0.20 | 89 | 1016.0 |
| 20260508023020 | 56 | 127 | 1.0 | 3.0 | 0.00 | 0.20 | 0.20 | 89 | 1016.0 |
| 20260508021515 | 56 | 127 | 1.0 | 3.0 | 0.00 | 0.20 | 0.20 | 89 | 1015.7 |
| 20260508020016 | 56 | 127 | 0.0 | 2.0 | 0.00 | 0.20 | 0.20 | 89 | 1015.6 |
| 20260508014514 | 56 | 127 | 1.0 | 4.0 | 0.00 | 0.20 | 0.20 | 89 | 1015.4 |
| 20260508013015 | 56 | 127 | 1.0 | 3.0 | 0.00 | 0.20 | 0.20 | 88 | 1015.2 |
| 20260508011512 | 56 | 127 | 1.0 | 4.0 | 0.00 | 0.20 | 0.20 | 88 | 1014.8 |
| 20260508010010 | 56 | 127 | 2.0 | 4.0 | 0.00 | 0.20 | 0.20 | 88 | 1015.1 |
| 20260508004510 | 56 | 127 | 2.0 | 4.0 | 0.00 | 0.20 | 0.20 | 88 | 1015.2 |
| 20260508003009 | 56 | 127 | 1.0 | 7.0 | 0.00 | 0.20 | 0.20 | 88 | 1015.0 |
| 20260508001509 | 56 | 128 | 2.0 | 5.0 | 0.00 | 0.20 | 0.20 | 89 | 1015.0 |
| 20260508000009 | 56 | 128 | 3.0 | 7.0 | 0.00 | 0.20 | 0.20 | 89 | 1015.2 |
| 20260507234507 | 56 | 129 | 2.0 | 7.0 | 0.00 | 0.20 | 0.20 | 89 | 1015.5 |
| 20260507233006 | 56 | 128 | 3.0 | 5.0 | 0.00 | 0.20 | 0.20 | 90 | 1015.5 |
| 20260507231507 | 56 | 129 | 2.0 | 4.0 | 0.00 | 0.20 | 0.20 | 90 | 1015.5 |
| 20260507230006 | 56 | 130 | 2.0 | 9.0 | 0.01 | 0.20 | 0.20 | 90 | 1015.8 |
| 20260507224513 | 56 | 129 | 2.0 | 5.0 | 0.01 | 0.20 | 0.20 | 90 | 1015.8 |
| 20260507223004 | 56 | 135 | 1.0 | 4.0 | 0.01 | 0.20 | 0.20 | 89 | 1016.2 |
| 20260507221503 | 56 | 135 | 0.0 | 5.0 | 0.01 | 0.20 | 0.20 | 89 | 1016.2 |
| 20260507220002 | 56 | 136 | 3.0 | 7.0 | 0.00 | 0.19 | 0.19 | 88 | 1016.4 |
| 20260507214501 | 56 | 105 | 2.0 | 6.0 | 0.02 | 0.19 | 0.19 | 88 | 1016.5 |
| 20260507213004 | 56 | 96 | 1.0 | 9.0 | 0.02 | 0.19 | 0.19 | 88 | 1016.6 |
| 20260507211502 | 56 | 142 | 5.0 | 11.0 | 0.02 | 0.19 | 0.19 | 88 | 1017.3 |
| 20260507210100 | 56 | 110 | 3.0 | 7.0 | 0.02 | 0.19 | 0.19 | 89 | 1017.4 |
| 20260507204612 | 56 | 59 | 1.0 | 6.0 | 0.00 | 0.17 | 0.17 | 89 | 1017.3 |
| 20260507203100 | 55 | 66 | 3.0 | 6.0 | 0.04 | 0.17 | 0.17 | 88 | 1017.3 |
| 20260507201559 | 55 | 71 | 3.0 | 9.0 | 0.17 | 0.17 | 0.17 | 88 | 1017.6 |
| 20260507200058 | 55 | 95 | 4.0 | 8.0 | 0.17 | 0.17 | 0.17 | 88 | 1017.7 |
| 20260507194558 | 54 | 91 | 5.0 | 12.0 | 0.17 | 0.17 | 0.17 | 86 | 1017.5 |
| 20260507193108 | 55 | 78 | 10.0 | 16.0 | 0.13 | 0.13 | 0.13 | 82 | 1017.6 |
| 20260507191559 | 58 | 227 | 4.0 | 11.0 | 0.00 | 0.00 | 0.00 | 78 | 1018.4 |
| 20260507184555 | 59 | 145 | 4.0 | 11.0 | 0.00 | 0.00 | 0.00 | 69 | 1018.5 |
| 20260507183059 | 60 | 142 | 3.0 | 10.0 | 0.00 | 0.00 | 0.00 | 69 | 1018.1 |
| 20260507181554 | 60 | 85 | 4.0 | 11.0 | 0.00 | 0.00 | 0.00 | 70 | 1018.3 |
| 20260507180054 | 60 | 86 | 6.0 | 15.0 | 0.00 | 0.00 | 0.00 | 67 | 1018.1 |
| 20260507174553 | 60 | 78 | 5.0 | 10.0 | 0.00 | 0.00 | 0.00 | 68 | 1018.9 |
| 20260507173055 | 61 | 78 | 8.0 | 14.0 | 0.00 | 0.00 | 0.00 | 65 | 1018.4 |
| 20260507171554 | 60 | 74 | 8.0 | 16.0 | 0.00 | 0.00 | 0.00 | 67 | 1018.5 |
| 20260507170050 | 60 | 51 | 8.0 | 14.0 | 0.00 | 0.00 | 0.00 | 68 | 1018.7 |
| 20260507164543 | 59 | 57 | 7.0 | 13.0 | 0.00 | 0.00 | 0.00 | 71 | 1018.8 |
| 20260507163042 | 58 | 92 | 6.0 | 12.0 | 0.00 | 0.00 | 0.00 | 72 | 1018.8 |
| 20260507161542 | 57 | 63 | 6.0 | 14.0 | 0.00 | 0.00 | 0.00 | 73 | 1018.8 |
| 20260507160039 | 58 | 76 | 6.0 | 13.0 | 0.00 | 0.00 | 0.00 | 73 | 1019.2 |
| 20260507154540 | 57 | 87 | 7.0 | 15.0 | 0.00 | 0.00 | 0.00 | 75 | 1019.1 |
| 20260507153045 | 57 | 67 | 8.0 | 17.0 | 0.00 | 0.00 | 0.00 | 75 | 1019.1 |
| 20260507151535 | 56 | 68 | 7.0 | 13.0 | 0.00 | 0.00 | 0.00 | 77 | 1019.1 |
| 20260507150034 | 55 | 65 | 8.0 | 15.0 | 0.00 | 0.00 | 0.00 | 78 | 1019.3 |
| 20260507144534 | 55 | 74 | 6.0 | 13.0 | 0.00 | 0.00 | 0.00 | 80 | 1019.5 |
| 20260507143032 | 55 | 51 | 9.0 | 15.0 | 0.00 | 0.00 | 0.00 | 81 | 1019.0 |
| 20260507141531 | 54 | 78 | 6.0 | 13.0 | 0.00 | 0.00 | 0.00 | 82 | 1019.6 |
| 20260507140034 | 54 | 53 | 6.0 | 14.0 | 0.00 | 0.00 | 0.00 | 83 | 1019.4 |
| 20260507134530 | 54 | 102 | 5.0 | 12.0 | 0.00 | 0.02 | 0.00 | 83 | 1019.4 |
| 20260507133028 | 54 | 59 | 6.0 | 12.0 | 0.00 | 0.02 | 0.00 | 84 | 1019.8 |
| 20260507131527 | 53 | 32 | 5.0 | 14.0 | 0.00 | 0.02 | 0.00 | 85 | 1019.4 |
| 20260507130026 | 53 | 44 | 7.0 | 14.0 | 0.00 | 0.02 | 0.00 | 85 | 1019.5 |
| 20260507124526 | 53 | 61 | 8.0 | 15.0 | 0.00 | 0.03 | 0.00 | 85 | 1019.5 |
| 20260507123026 | 53 | 59 | 4.0 | 13.0 | 0.00 | 0.03 | 0.00 | 86 | 1019.3 |
| 20260507121521 | 53 | 67 | 5.0 | 14.0 | 0.00 | 0.03 | 0.00 | 86 | 1019.0 |
| 20260507120019 | 53 | 43 | 10.0 | 19.0 | 0.00 | 0.03 | 0.00 | 85 | 1019.0 |
| 20260507114515 | 54 | 28 | 5.0 | 15.0 | 0.00 | 0.03 | 0.00 | 85 | 1018.9 |
| 20260507113021 | 54 | 63 | 7.0 | 16.0 | 0.00 | 0.03 | 0.00 | 85 | 1018.6 |
| 20260507111513 | 54 | 44 | 6.0 | 14.0 | 0.00 | 0.03 | 0.00 | 86 | 1018.5 |
| 20260507110009 | 54 | 24 | 7.0 | 14.0 | 0.00 | 0.03 | 0.00 | 85 | 1018.3 |